Tracking 35331 objects as of 16-Sep-2026
HD Live streaming from Space Station
objects crossing your sky now

STARLINK-30588

Track STARLINK-30588 now!
10-day predictions
STARLINK-30588 is classified as:


NORAD ID: 58062
Int'l Code: 2023-158M
Launch date: October 13, 2023
Source: United States (US)
Launch site: AIR FORCE EASTERN TEST RANGE (AFETR)
Your satellite tracking list
Your tracking list is empty




NASA's NSSDC Master Catalog

Two Line Element Set (TLE):
1 58062U 23158M   26258.65894650 -.00000565  00000-0 -11003-4 0  9993
2 58062  43.0026  34.1727 0001252 282.4821  77.5890 15.27582493162628
Source of the keplerian elements: AFSPC